26/04/2024 08:45:00,0.172
26/04/2024 09:00:00,0.171
26/04/2024 09:15:00,0.172
26/04/2024 09:30:00,0.172
26/04/2024 09:45:00,0.171
26/04/2024 10:00:00,0.171
26/04/2024 10:15:00,0.171
26/04/2024 10:30:00,0.171
26/04/2024 10:45:00,0.17
26/04/2024 11:00:00,0.171
26/04/2024 11:15:00,0.169
26/04/2024 11:30:00,0.169
26/04/2024 11:45:00,0.169
26/04/2024 12:00:00,0.171
26/04/2024 12:15:00,0.171
26/04/2024 12:30:00,0.172
26/04/2024 12:45:00,0.171
26/04/2024 13:00:00,0.171
26/04/2024 13:15:00,0.17
26/04/2024 13:30:00,0.171
26/04/2024 13:45:00,0.17
26/04/2024 14:00:00,0.171
26/04/2024 14:15:00,0.17
26/04/2024 14:30:00,0.17
26/04/2024 14:45:00,0.17
26/04/2024 15:00:00,0.17
26/04/2024 15:15:00,0.171
26/04/2024 15:30:00,0.171
26/04/2024 15:45:00,0.17
26/04/2024 16:00:00,0.17
26/04/2024 16:15:00,0.17
26/04/2024 16:30:00,0.17
26/04/2024 16:45:00,0.169
26/04/2024 17:00:00,0.17
26/04/2024 17:15:00,0.17
26/04/2024 17:30:00,0.169
26/04/2024 17:45:00,0.169
26/04/2024 18:00:00,0.169
26/04/2024 18:15:00,0.169
26/04/2024 18:30:00,0.168
26/04/2024 18:45:00,0.169
26/04/2024 19:00:00,0.169
26/04/2024 19:15:00,0.168
26/04/2024 19:30:00,0.168
26/04/2024 19:45:00,0.168
26/04/2024 20:00:00,0.168
26/04/2024 20:15:00,0.167
26/04/2024 20:30:00,0.168
26/04/2024 20:45:00,0.168
26/04/2024 21:00:00,0.167
26/04/2024 21:15:00,0.167
26/04/2024 21:30:00,0.167
26/04/2024 21:45:00,0.167
26/04/2024 22:00:00,0.167
26/04/2024 22:15:00,0.166
26/04/2024 22:30:00,0.166
26/04/2024 22:45:00,0.166
26/04/2024 23:00:00,0.166
26/04/2024 23:15:00,0.166
26/04/2024 23:30:00,0.166
26/04/2024 23:45:00,0.166
27/04/2024 00:00:00,0.165
27/04/2024 00:15:00,0.165
27/04/2024 00:30:00,0.165
27/04/2024 00:45:00,0.165
27/04/2024 01:00:00,0.165
27/04/2024 01:15:00,0.165
27/04/2024 01:30:00,0.165
27/04/2024 01:45:00,0.165
27/04/2024 02:00:00,0.165
27/04/2024 02:15:00,0.164
27/04/2024 02:30:00,0.164
27/04/2024 02:45:00,0.164
27/04/2024 03:00:00,0.164
27/04/2024 03:15:00,0.164
27/04/2024 03:30:00,0.164
27/04/2024 03:45:00,0.165
27/04/2024 04:00:00,0.164
27/04/2024 04:15:00,0.164
27/04/2024 04:30:00,0.164
27/04/2024 04:45:00,0.164
27/04/2024 05:00:00,0.164
27/04/2024 05:15:00,0.164
27/04/2024 05:30:00,0.164
27/04/2024 05:45:00,0.164
27/04/2024 06:00:00,0.163
27/04/2024 06:15:00,0.163
27/04/2024 06:30:00,0.164
27/04/2024 06:45:00,0.163
27/04/2024 07:00:00,0.163
27/04/2024 07:15:00,0.164
27/04/2024 07:30:00,0.163
27/04/2024 07:45:00,0.163
27/04/2024 08:00:00,0.163
27/04/2024 08:15:00,0.163
27/04/2024 08:30:00,0.163
27/04/2024 08:45:00,0.163
27/04/2024 09:00:00,0.163
27/04/2024 09:15:00,0.163
27/04/2024 09:30:00,0.164
27/04/2024 09:45:00,0.162
27/04/2024 10:00:00,0.163
27/04/2024 10:15:00,0.164
27/04/2024 10:30:00,0.164
27/04/2024 10:45:00,0.162
27/04/2024 11:00:00,0.162
27/04/2024 11:15:00,0.165
27/04/2024 11:30:00,0.162
27/04/2024 11:45:00,0.162
27/04/2024 12:00:00,0.164
27/04/2024 12:15:00,0.162
27/04/2024 12:30:00,0.162
27/04/2024 12:45:00,0.166
27/04/2024 13:00:00,0.164
27/04/2024 13:15:00,0.163
27/04/2024 13:30:00,0.163
27/04/2024 13:45:00,0.163
27/04/2024 14:00:00,0.163
27/04/2024 14:15:00,0.162
27/04/2024 14:30:00,0.163
27/04/2024 14:45:00,0.162
27/04/2024 15:00:00,0.162
27/04/2024 15:15:00,0.162
27/04/2024 15:30:00,0.163
27/04/2024 15:45:00,0.162
27/04/2024 16:00:00,0.162
27/04/2024 16:15:00,0.162
27/04/2024 16:30:00,0.162
27/04/2024 16:45:00,0.162
27/04/2024 17:00:00,0.162
27/04/2024 17:15:00,0.161
27/04/2024 17:30:00,0.161
27/04/2024 17:45:00,0.161
27/04/2024 18:00:00,0.161
27/04/2024 18:15:00,0.161
27/04/2024 18:30:00,0.16
27/04/2024 18:45:00,0.16
27/04/2024 19:00:00,0.16
27/04/2024 19:15:00,0.16
27/04/2024 19:30:00,0.16
27/04/2024 19:45:00,0.16
27/04/2024 20:00:00,0.16
27/04/2024 20:15:00,0.16
27/04/2024 20:30:00,0.159
27/04/2024 20:45:00,0.159
27/04/2024 21:00:00,0.159
27/04/2024 21:15:00,0.159
27/04/2024 21:30:00,0.158
27/04/2024 21:45:00,0.158
27/04/2024 22:00:00,0.159
27/04/2024 22:15:00,0.158
27/04/2024 22:30:00,0.158
27/04/2024 22:45:00,0.158
27/04/2024 23:00:00,0.157
27/04/2024 23:15:00,0.158
27/04/2024 23:30:00,0.157
27/04/2024 23:45:00,0.157
28/04/2024 00:00:00,0.157
28/04/2024 00:15:00,0.157
28/04/2024 00:30:00,0.157
28/04/2024 00:45:00,0.157
28/04/2024 01:00:00,0.157
28/04/2024 01:15:00,0.156
28/04/2024 01:30:00,0.156
28/04/2024 01:45:00,0.156
28/04/2024 02:00:00,0.156
28/04/2024 02:15:00,0.157
28/04/2024 02:30:00,0.156
28/04/2024 02:45:00,0.157
28/04/2024 03:00:00,0.156
28/04/2024 03:15:00,0.156
28/04/2024 03:30:00,0.156
28/04/2024 03:45:00,0.156
28/04/2024 04:00:00,0.156
28/04/2024 04:15:00,0.156
28/04/2024 04:30:00,0.156
28/04/2024 04:45:00,0.156
28/04/2024 05:00:00,0.156
28/04/2024 05:15:00,0.157
28/04/2024 05:30:00,0.156
28/04/2024 05:45:00,0.156
28/04/2024 06:00:00,0.156
28/04/2024 06:15:00,0.157
28/04/2024 06:30:00,0.156
28/04/2024 06:45:00,0.156
28/04/2024 07:00:00,0.156
28/04/2024 07:15:00,0.156
28/04/2024 07:30:00,0.156
28/04/2024 07:45:00,0.156
28/04/2024 08:00:00,0.155
28/04/2024 08:15:00,0.156
28/04/2024 08:30:00,0.157
28/04/2024 08:45:00,0.156
28/04/2024 09:00:00,0.156
28/04/2024 09:15:00,0.157
28/04/2024 09:30:00,0.157
28/04/2024 09:45:00,0.157
28/04/2024 10:00:00,0.156
28/04/2024 10:15:00,0.157
28/04/2024 10:30:00,0.156
28/04/2024 10:45:00,0.155
28/04/2024 11:00:00,0.155
28/04/2024 11:15:00,0.156
28/04/2024 11:30:00,0.156
28/04/2024 11:45:00,0.156
28/04/2024 12:00:00,0.156
28/04/2024 12:15:00,0.156
28/04/2024 12:30:00,0.157
28/04/2024 12:45:00,0.156
28/04/2024 13:00:00,0.156
28/04/2024 13:15:00,0.155
28/04/2024 13:30:00,0.155
28/04/2024 13:45:00,0.157
28/04/2024 14:00:00,0.156
28/04/2024 14:15:00,0.156
28/04/2024 14:30:00,0.156
28/04/2024 14:45:00,0.157
28/04/2024 15:00:00,0.155
28/04/2024 15:15:00,0.156
28/04/2024 15:30:00,0.157
28/04/2024 15:45:00,0.157
28/04/2024 16:00:00,0.157
28/04/2024 16:15:00,0.154
28/04/2024 16:30:00,0.157
28/04/2024 16:45:00,0.155
28/04/2024 17:00:00,0.156
28/04/2024 17:15:00,0.156
28/04/2024 17:30:00,0.157
28/04/2024 17:45:00,0.156
28/04/2024 18:00:00,0.156
28/04/2024 18:15:00,0.155
28/04/2024 18:30:00,0.155
28/04/2024 18:45:00,0.155
28/04/2024 19:00:00,0.156
28/04/2024 19:15:00,0.156
28/04/2024 19:30:00,0.155
28/04/2024 19:45:00,0.155
28/04/2024 20:00:00,0.155
28/04/2024 20:15:00,0.155
28/04/2024 20:30:00,0.154
28/04/2024 20:45:00,0.155
28/04/2024 21:00:00,0.155
28/04/2024 21:15:00,0.154
28/04/2024 21:30:00,0.155
28/04/2024 21:45:00,0.155
28/04/2024 22:00:00,0.154
28/04/2024 22:15:00,0.154
28/04/2024 22:30:00,0.154
28/04/2024 22:45:00,0.153
28/04/2024 23:00:00,0.154
28/04/2024 23:15:00,0.154
28/04/2024 23:30:00,0.154
28/04/2024 23:45:00,0.154
29/04/2024 00:00:00,0.155
29/04/2024 00:15:00,0.158
29/04/2024 00:30:00,0.159
29/04/2024 00:45:00,0.157
29/04/2024 01:00:00,0.158
29/04/2024 01:15:00,0.158
29/04/2024 01:30:00,0.158
29/04/2024 01:45:00,0.159
29/04/2024 02:00:00,0.159
29/04/2024 02:15:00,0.16
29/04/2024 02:30:00,0.16
29/04/2024 02:45:00,0.159
29/04/2024 03:00:00,0.159
29/04/2024 03:15:00,0.16
29/04/2024 03:30:00,0.161
29/04/2024 03:45:00,0.162
29/04/2024 04:00:00,0.162
29/04/2024 04:15:00,0.162
29/04/2024 04:30:00,0.162
29/04/2024 04:45:00,0.162
29/04/2024 05:00:00,0.163
29/04/2024 05:15:00,0.163
29/04/2024 05:30:00,0.164
29/04/2024 05:45:00,0.165
29/04/2024 06:00:00,0.166
29/04/2024 06:15:00,0.166
29/04/2024 06:30:00,0.167
29/04/2024 06:45:00,0.167
29/04/2024 07:00:00,0.168
29/04/2024 07:15:00,0.17
29/04/2024 07:30:00,0.171
29/04/2024 07:45:00,0.173
29/04/2024 08:00:00,0.174
29/04/2024 08:15:00,0.176
29/04/2024 08:30:00,0.177
29/04/2024 08:45:00,0.179
29/04/2024 09:00:00,0.18
29/04/2024 09:15:00,0.178
29/04/2024 09:30:00,0.182
29/04/2024 09:45:00,0.181
29/04/2024 10:00:00,0.182
29/04/2024 10:15:00,0.186
29/04/2024 10:30:00,0.187
29/04/2024 10:45:00,0.191
29/04/2024 11:00:00,0.195
29/04/2024 11:15:00,0.199
29/04/2024 11:30:00,0.203
29/04/2024 11:45:00,0.207
29/04/2024 12:00:00,0.208
29/04/2024 12:15:00,0.211
29/04/2024 12:30:00,0.211
29/04/2024 12:45:00,0.212
29/04/2024 13:00:00,0.212
29/04/2024 13:15:00,0.213
29/04/2024 13:30:00,0.213
29/04/2024 13:45:00,0.213
29/04/2024 14:00:00,0.211
29/04/2024 14:15:00,0.213
29/04/2024 14:30:00,0.211
29/04/2024 14:45:00,0.213
29/04/2024 15:00:00,0.209
29/04/2024 15:15:00,0.211
29/04/2024 15:30:00,0.21
29/04/2024 15:45:00,0.206
29/04/2024 16:00:00,0.21
29/04/2024 16:15:00,0.209
29/04/2024 16:30:00,0.208
29/04/2024 16:45:00,0.208
29/04/2024 17:00:00,0.207
29/04/2024 17:15:00,0.207
29/04/2024 17:30:00,0.207
29/04/2024 17:45:00,0.208
29/04/2024 18:00:00,0.207
29/04/2024 18:15:00,0.209
29/04/2024 18:30:00,0.209
29/04/2024 18:45:00,0.211
29/04/2024 19:00:00,0.212
29/04/2024 19:15:00,0.216
29/04/2024 19:30:00,0.219
29/04/2024 19:45:00,0.224
29/04/2024 20:00:00,0.23
29/04/2024 20:15:00,0.237
29/04/2024 20:30:00,0.246
29/04/2024 20:45:00,0.257
29/04/2024 21:00:00,0.267
29/04/2024 21:15:00,0.275
29/04/2024 21:30:00,0.285
29/04/2024 21:45:00,0.293
29/04/2024 22:00:00,0.3
29/04/2024 22:15:00,0.306
29/04/2024 22:30:00,0.311
29/04/2024 22:45:00,0.314
29/04/2024 23:00:00,0.316
29/04/2024 23:15:00,0.317
29/04/2024 23:30:00,0.318
29/04/2024 23:45:00,0.316
30/04/2024 00:00:00,0.316
30/04/2024 00:15:00,0.315
30/04/2024 00:30:00,0.314
30/04/2024 00:45:00,0.313
30/04/2024 01:00:00,0.311
30/04/2024 01:15:00,0.31
30/04/2024 01:30:00,0.307
30/04/2024 01:45:00,0.305
30/04/2024 02:00:00,0.304
30/04/2024 02:15:00,0.302
30/04/2024 02:30:00,0.3
30/04/2024 02:45:00,0.298
30/04/2024 03:00:00,0.296
30/04/2024 03:15:00,0.294
30/04/2024 03:30:00,0.292
30/04/2024 03:45:00,0.291
30/04/2024 04:00:00,0.289
30/04/2024 04:15:00,0.288
30/04/2024 04:30:00,0.287
30/04/2024 04:45:00,0.285
30/04/2024 05:00:00,0.285
30/04/2024 05:15:00,0.284
30/04/2024 05:30:00,0.284
30/04/2024 05:45:00,0.284
30/04/2024 06:00:00,0.284
30/04/2024 06:15:00,0.284
30/04/2024 06:30:00,0.284
30/04/2024 06:45:00,0.284
30/04/2024 07:00:00,0.284
30/04/2024 07:15:00,0.284
30/04/2024 07:30:00,0.284
30/04/2024 07:45:00,0.284
30/04/2024 08:00:00,0.284
30/04/2024 08:15:00,0.285
30/04/2024 08:30:00,0.285
30/04/2024 08:45:00,0.284
30/04/2024 09:00:00,0.285
30/04/2024 09:15:00,0.285
30/04/2024 09:30:00,0.284
30/04/2024 09:45:00,0.285
30/04/2024 10:00:00,0.282
30/04/2024 10:15:00,0.282
30/04/2024 10:30:00,0.281
30/04/2024 10:45:00,0.281
30/04/2024 11:00:00,0.28
30/04/2024 11:15:00,0.28
30/04/2024 11:30:00,0.277
30/04/2024 11:45:00,0.278
30/04/2024 12:00:00,0.277
30/04/2024 12:15:00,0.276
30/04/2024 12:30:00,0.276
30/04/2024 12:45:00,0.274
30/04/2024 13:00:00,0.272
30/04/2024 13:15:00,0.271
30/04/2024 13:30:00,0.271
30/04/2024 13:45:00,0.269
30/04/2024 14:00:00,0.267
30/04/2024 14:15:00,0.266
30/04/2024 14:30:00,0.264
30/04/2024 14:45:00,0.265
30/04/2024 15:00:00,0.263
30/04/2024 15:15:00,0.26
30/04/2024 15:30:00,0.26
30/04/2024 15:45:00,0.258
30/04/2024 16:00:00,0.256
30/04/2024 16:15:00,0.255
30/04/2024 16:30:00,0.254
30/04/2024 16:45:00,0.253
30/04/2024 17:00:00,0.252
30/04/2024 17:15:00,0.25
30/04/2024 17:30:00,0.249
30/04/2024 17:45:00,0.248
30/04/2024 18:00:00,0.246
30/04/2024 18:15:00,0.244
30/04/2024 18:30:00,0.243
30/04/2024 18:45:00,0.242
30/04/2024 19:00:00,0.241
30/04/2024 19:15:00,0.239
30/04/2024 19:30:00,0.239
30/04/2024 19:45:00,0.237
30/04/2024 20:00:00,0.236
30/04/2024 20:15:00,0.234
30/04/2024 20:30:00,0.234
30/04/2024 20:45:00,0.232
30/04/2024 21:00:00,0.231
30/04/2024 21:15:00,0.23
30/04/2024 21:30:00,0.229
30/04/2024 21:45:00,0.228
30/04/2024 22:00:00,0.226
30/04/2024 22:15:00,0.225
30/04/2024 22:30:00,0.224
30/04/2024 22:45:00,0.223
30/04/2024 23:00:00,0.221
30/04/2024 23:15:00,0.221
30/04/2024 23:30:00,0.219
30/04/2024 23:45:00,0.219
01/05/2024 00:00:00,0.218
01/05/2024 00:15:00,0.217
01/05/2024 00:30:00,0.216
01/05/2024 00:45:00,0.215
01/05/2024 01:00:00,0.215
01/05/2024 01:15:00,0.213
01/05/2024 01:30:00,0.213
01/05/2024 01:45:00,0.212
01/05/2024 02:00:00,0.211
01/05/2024 02:15:00,0.21
01/05/2024 02:30:00,0.21
01/05/2024 02:45:00,0.209
01/05/2024 03:00:00,0.208
01/05/2024 03:15:00,0.208
01/05/2024 03:30:00,0.207
01/05/2024 03:45:00,0.207
01/05/2024 04:00:00,0.206
01/05/2024 04:15:00,0.205
01/05/2024 04:30:00,0.205
01/05/2024 04:45:00,0.205
01/05/2024 05:00:00,0.204
01/05/2024 05:15:00,0.204
01/05/2024 05:30:00,0.203
01/05/2024 05:45:00,0.203
01/05/2024 06:00:00,0.202
01/05/2024 06:15:00,0.202
01/05/2024 06:30:00,0.201
01/05/2024 06:45:00,0.201
01/05/2024 07:00:00,0.2
01/05/2024 07:15:00,0.2
01/05/2024 07:30:00,0.2
01/05/2024 07:45:00,0.199
01/05/2024 08:00:00,0.199
